User: anonymous   Login
Location: Unspecified
(0.0000°N, 0.0000°E)
Time: 23:33:34
(UTC+00:00)
Language:

USA 269 - Orbit

View from above orbital plane
View from above orbital plane
View from above satellite
View from above satellite

Ground track
Ground track

The orbit data is extracted from the following two-line orbital elements,

1 41724U 16047A   18110.65700870 0.00000000  00000-0  00000-0 0    03
2 41724   4.1828 328.3574 0029132 282.7143  76.9660  1.00742851    01
Epoch (UTC): 20 April 2018 15:46:05
Eccentricity: 0.0029132
inclination: 4.1828°
perigee height: 35532 km
apogee height: 35777 km
right ascension of ascending node: 328.3574°
argument of perigee: 282.7143°
revolutions per day: 1.00742851
mean anomaly at epoch: 76.9660°
orbit number at epoch: 0

The dashed part of the orbit path shows where the satellite is in the earth's shadow,  

DLR